[[{"header":{"parameterUnit":"m.s-1","parameterCategory":1,"la1":30.2991,"la2":30.254,"lo1":-89.0895,"lo2":-89.0444,"dy":0.0017,"dx":0.0017,"nx":28,"ny":28,"refTime":"2025-07-13T09:00:00:Z","depth":0,"parameterNumber":2,"parameterNumberName":"U-component_of_WINDS"},"data":[0,0,0,0,0,0,0,0,0,0,0,0,0,0,0,0,0,0,0,0,0,0,0,0,0,0,0,0,0,0,0,0,0,0,0,0,0,0,0,0,0,0,0,0,0,0,0,0,0,0,0,0,0,0,0,0,0,0,2.8729,2.873,0,2.8787,2.8788,2.8789,2.8727,2.8725,2.8722,2.872,2.8783,2.8787,2.8791,0,0,0,0,0,0,0,0,0,0,0,0,0,2.8568,2.8571,2.8729,2.873,2.8731,2.8787,2.8788,2.8789,2.8728,2.8725,2.8722,2.8719,2.8782,2.8786,2.8791,0,0,0,0,0,0,0,0,0,0,0,0,0,2.8633,2.8572,2.8729,2.8707,2.8705,2.8787,2.8788,2.8789,2.8728,2.8725,2.8721,2.8718,2.878,2.8786,2.8792,2.8899,0,0,2.8809,2.8812,0,0,0,0,0,0,0,0,2.863,2.8639,2.8709,2.8709,2.8707,2.8746,2.8754,2.8826,2.8729,2.872,2.872,2.8716,2.8774,2.878,2.8799,2.8902,2.8905,2.881,2.8813,2.8816,2.8818,0,0,0,0,0,0,0,2.8625,2.8636,2.8752,2.871,2.8709,2.8695,2.87,2.8768,2.8766,2.872,2.8716,2.8723,2.8773,2.8793,2.88,2.8906,2.881,2.8815,2.8819,2.8821,2.9099,2.9103,0,0,0,0,0,0,2.8623,2.8633,2.875,2.8754,2.8659,2.8701,2.8707,2.8737,2.8765,2.8766,2.8726,2.872,2.8785,2.8793,2.8802,2.8928,2.8816,2.8821,2.8825,2.9095,2.91,2.9104,0,0,0,0,0,0,2.8619,2.8634,2.8748,2.8692,2.8706,2.8707,2.8742,2.874,2.8761,2.877,2.877,2.8748,2.8783,2.8794,2.8875,2.893,2.8824,2.8829,2.9091,2.9097,2.9102,2.9183,0,0,0,0,0,0,2.8615,2.8633,2.8673,2.8694,2.8709,2.882,2.8746,2.8744,2.8771,2.8764,2.879,2.8791,2.8781,2.8867,2.8881,2.8936,2.8834,2.9086,2.9093,2.91,2.9175,2.9191,2.9204,0,0,0,0,0,2.861,2.8694,2.8675,2.869,2.8759,2.8823,2.8832,2.8817,2.8776,2.8816,2.8822,2.879,2.8922,2.8875,2.8891,2.8948,2.9082,2.9091,2.91,2.9169,2.9188,2.9204,0,0,0,0,0,0,2.8681,2.8697,2.8676,2.877,2.8795,2.8812,2.8863,2.8838,2.8877,2.8868,2.885,2.8857,2.8942,2.8954,2.8902,2.9054,2.8995,2.9008,2.9043,2.9061,2.9075,2.9069,2.8839,0,0,0,0,0,2.8708,2.8757,2.8769,2.885,2.8864,2.8862,2.8889,2.8876,2.8902,2.8913,2.8924,2.8952,2.8999,2.9031,2.9075,2.9177,2.9182,2.9225,2.9239,2.9251,2.9261,2.9315,2.9334,2.9133,2.9133,2.9133,0,0,2.8763,2.8778,2.881,2.8865,2.8883,2.8935,2.8871,2.8929,2.8968,2.8922,2.8998,2.9008,2.9038,2.913,2.9171,2.9142,2.9318,2.9262,2.9271,2.9275,2.9326,2.9345,2.9362,2.9139,2.9138,2.9137,0,0,2.8891,2.8907,2.8976,2.8996,2.9024,2.9022,2.9039,2.906,2.9064,2.914,2.9107,2.9153,2.9236,2.9258,2.928,2.9416,2.9388,2.9432,2.9506,2.9559,2.9574,2.9588,2.9636,2.9653,2.9442,2.9442,2.9442,0,2.8956,2.9032,2.9015,2.9076,2.91,2.9061,2.9131,2.9151,2.9193,2.9211,2.9178,2.928,2.9298,2.9393,2.9427,2.9446,2.9465,2.9427,2.9573,2.9587,2.96,2.9645,2.9663,2.9447,2.9447,2.9446,2.9446,0,2.9111,2.9165,2.9218,2.9257,2.9288,2.9354,2.9347,2.9381,2.9366,2.9367,2.9446,2.9465,2.9512,2.9535,2.9521,2.9629,2.961,2.9576,2.9516,2.9624,2.9666,2.9683,2.9454,2.9453,2.9451,2.945,0,0,2.9284,2.9313,2.9333,2.935,2.9378,2.942,2.9484,2.9529,2.9557,2.9588,2.9641,2.9712,2.968,2.9705,2.9694,2.9741,2.9846,2.97,2.9701,2.9725,2.9965,2.9989,3.0009,2.9828,2.9831,2.9834,2.9962,0,2.941,2.9519,2.9506,2.961,2.9659,2.9622,2.9678,2.9702,2.9705,2.9748,2.9753,2.9802,2.9758,2.9772,2.9817,2.9824,2.9893,2.9814,2.9877,2.9879,2.9868,3.0031,3.0057,3.0177,2.9978,2.9981,2.9983,0,2.9572,2.9607,2.9716,2.9736,2.9756,2.9806,2.9846,2.9887,2.9914,2.9913,2.9942,2.9922,2.9987,2.9927,3.0016,2.9962,2.9988,2.9995,2.9999,3.0003,2.9936,3.0038,3.0215,3.0232,3.0009,3.0007,3.0005,0,2.9685,2.9759,2.9834,2.985,2.9876,2.9912,2.9925,2.9948,2.9975,3.0011,3.0029,3.0072,3.0096,3.013,3.0123,3.0081,3.0213,3.0154,3.0214,3.0215,3.0242,3.024,3.0424,3.0262,3.0262,3.0261,3.0261,0,2.9826,2.9894,2.9884,2.993,3.0005,2.999,3.0065,3.0073,3.0094,3.0141,3.0114,3.0159,3.0147,3.0192,3.0188,3.0261,3.0273,3.0274,3.0271,3.0275,3.0275,3.029,3.0281,3.0266,3.0265,3.0264,3.0263,0,2.9964,2.9961,3.0039,3.0057,3.0063,3.0118,3.0133,3.0177,3.0178,3.0238,3.0252,3.0255,3.0306,3.0303,3.0362,3.0358,3.0449,3.0437,3.0439,3.0436,3.0496,3.049,3.0694,3.072,3.0543,3.0545,3.0546,0,3.0053,3.0104,3.0128,3.0157,3.0171,3.0219,3.0247,3.0235,3.0265,3.0299,3.0339,3.0387,3.0425,3.051,3.0517,3.0562,3.0551,3.062,3.0557,3.0559,3.055,3.0546,3.0551,3.0631,3.0633,3.0635,3.0636,0,3.0212,3.0208,3.0249,3.0289,3.0323,3.0354,3.0383,3.0409,3.04,3.0436,3.0487,3.0517,3.0576,3.0624,3.0667,3.0681,3.0657,3.0656,3.0672,3.0675,3.0673,3.0674,3.047,3.0651,3.0649,3.0648,3.0647,3.0647,3.0327,3.0371,3.0393,3.044,3.046,3.0487,3.0528,3.0535,3.0578,3.0624,3.0615,3.0673,3.0699,3.0753,3.0771,3.0817,3.0792,3.0816,3.0822,3.0827,3.0833,3.0668,3.0825,3.0825,3.0824,3.0824,3.0824,0,3.0483,3.0496,3.0539,3.0579,3.0616,3.059,3.062,3.0653,3.0704,3.0729,3.0767,3.0827,3.0874,3.0886,3.0931,3.0965,3.0955,3.0977,3.0974,3.0977,3.0854,3.0834,3.0984,3.0984,3.0984,3.0984,3.0984,3.0984,3.0568,3.064,3.0638,3.072,3.0732,3.0788,3.0807,3.0833,3.0853,3.092,3.0958,3.0965,3.0986,3.1032,3.1075,3.1077,3.1095,3.1121,3.1119,3.1002,3.0986,3.0971,3.0952,3.1125,3.1125,3.1238,3.1239,3.124]},{"header":{"parameterUnit":"m.s-1","parameterCategory":1,"la1":30.2991,"la2":30.254,"lo1":-89.0895,"lo2":-89.0444,"dy":0.0017,"dx":0.0017,"nx":28,"ny":28,"refTime":"2025-07-13T09:00:00:Z","depth":0,"parameterNumber":3,"parameterNumberName":"V-component_of_WINDS"},"data":[0,0,0,0,0,0,0,0,0,0,0,0,0,0,0,0,0,0,0,0,0,0,0,0,0,0,0,0,0,0,0,0,0,0,0,0,0,0,0,0,0,0,0,0,0,0,0,0,0,0,0,0,0,0,0,0,0,0,1.7136,1.7136,0,1.716,1.716,1.716,1.716,1.716,1.716,1.7159,1.7181,1.7182,1.7183,0,0,0,0,0,0,0,0,0,0,0,0,0,1.7086,1.7087,1.7136,1.7136,1.7136,1.716,1.716,1.7161,1.716,1.716,1.7159,1.7159,1.7181,1.7182,1.7183,0,0,0,0,0,0,0,0,0,0,0,0,0,1.7108,1.7087,1.7136,1.7139,1.714,1.716,1.716,1.7161,1.716,1.716,1.7159,1.7159,1.718,1.7182,1.7183,1.72,0,0,1.7187,1.7188,0,0,0,0,0,0,0,0,1.7107,1.711,1.7138,1.7139,1.714,1.7157,1.7151,1.7174,1.716,1.7152,1.7159,1.7159,1.7173,1.7175,1.718,1.7201,1.7202,1.7187,1.7188,1.7188,1.7189,0,0,0,0,0,0,0,1.7106,1.7109,1.7145,1.7139,1.7139,1.7138,1.7141,1.7155,1.7165,1.7153,1.7153,1.7156,1.7173,1.7179,1.7181,1.7203,1.7187,1.7188,1.7189,1.719,1.7239,1.7239,0,0,0,0,0,0,1.7104,1.7108,1.7144,1.7146,1.7122,1.714,1.7143,1.7152,1.7165,1.7166,1.7156,1.7156,1.7177,1.7179,1.7182,1.7203,1.7188,1.719,1.719,1.7238,1.7239,1.7239,0,0,0,0,0,0,1.7103,1.7107,1.7143,1.7127,1.7132,1.7141,1.7151,1.7152,1.7158,1.7168,1.7169,1.7161,1.7177,1.718,1.7196,1.7203,1.719,1.7191,1.7238,1.7238,1.7239,1.7245,0,0,0,0,0,0,1.7101,1.7107,1.7114,1.7127,1.7132,1.7158,1.7152,1.7153,1.7161,1.716,1.7172,1.7173,1.7177,1.7194,1.7197,1.7205,1.7192,1.7237,1.7238,1.7239,1.7244,1.7246,1.7247,0,0,0,0,0,1.71,1.7114,1.7115,1.7119,1.7142,1.7159,1.7161,1.7166,1.7161,1.7168,1.7174,1.7173,1.7202,1.7196,1.7199,1.7208,1.7236,1.7238,1.7239,1.7243,1.7246,1.7247,0,0,0,0,0,0,1.7101,1.7116,1.7117,1.7136,1.7146,1.7159,1.7168,1.7168,1.7179,1.7178,1.7182,1.7184,1.72,1.7206,1.7198,1.7225,1.7219,1.7221,1.7221,1.7223,1.7225,1.7223,1.7194,0,0,0,0,0,1.7104,1.7117,1.7129,1.7145,1.715,1.7158,1.7165,1.7168,1.7178,1.7182,1.7189,1.7198,1.7209,1.7216,1.7227,1.7245,1.7247,1.7253,1.7254,1.7255,1.7257,1.7266,1.7268,1.7243,1.7243,1.7243,0,0,1.7109,1.7119,1.7127,1.7146,1.7154,1.7166,1.7162,1.7175,1.7184,1.7184,1.72,1.7205,1.7215,1.7232,1.724,1.7237,1.7264,1.7257,1.7258,1.7259,1.7268,1.727,1.7272,1.7244,1.7244,1.7244,0,0,1.7125,1.7135,1.7149,1.7157,1.717,1.7175,1.7179,1.7191,1.7195,1.7211,1.7211,1.7221,1.7241,1.7248,1.7254,1.7273,1.7272,1.7276,1.7285,1.7294,1.7296,1.7297,1.7304,1.7306,1.7278,1.7278,1.7278,0,1.713,1.715,1.7156,1.717,1.7177,1.7179,1.7193,1.72,1.7215,1.722,1.7217,1.7241,1.7248,1.7267,1.7271,1.7276,1.728,1.7275,1.7295,1.7297,1.7299,1.7305,1.7307,1.7278,1.7278,1.7278,1.7278,0,1.7155,1.7169,1.7179,1.7194,1.7203,1.7217,1.7224,1.7232,1.7234,1.7239,1.7255,1.7264,1.7276,1.7281,1.7282,1.7299,1.7297,1.7294,1.7288,1.7301,1.7307,1.7309,1.7279,1.7279,1.7279,1.7279,0,0,1.7172,1.7192,1.7195,1.7202,1.7216,1.7226,1.724,1.7253,1.726,1.727,1.7281,1.7297,1.7295,1.7302,1.7304,1.7312,1.7326,1.7308,1.7309,1.7311,1.7344,1.7346,1.7349,1.7326,1.7326,1.7326,1.7343,0,1.719,1.7215,1.722,1.7242,1.7254,1.7255,1.7267,1.7276,1.7281,1.7292,1.7297,1.7309,1.7305,1.7309,1.7317,1.7323,1.7333,1.7322,1.7335,1.7335,1.7332,1.7352,1.7353,1.7369,1.7346,1.7346,1.7346,0,1.7213,1.7225,1.7248,1.7261,1.7266,1.7276,1.7289,1.7299,1.7309,1.7312,1.732,1.7322,1.7335,1.7328,1.7346,1.7338,1.7344,1.7347,1.7348,1.7349,1.7341,1.7353,1.7374,1.7376,1.735,1.735,1.735,0,1.7223,1.7245,1.7261,1.7267,1.7282,1.729,1.7296,1.7306,1.7313,1.7324,1.7329,1.734,1.7346,1.7355,1.7359,1.7354,1.7376,1.737,1.7378,1.7378,1.7382,1.7381,1.7404,1.7386,1.7386,1.7386,1.7386,0,1.7242,1.7255,1.7266,1.7276,1.7291,1.7297,1.7311,1.7317,1.7326,1.7336,1.7338,1.7348,1.7353,1.7363,1.7366,1.738,1.7382,1.7385,1.7385,1.7384,1.7384,1.7388,1.7386,1.7387,1.7387,1.7387,1.7387,0,1.7255,1.7263,1.7281,1.7294,1.7297,1.7308,1.7318,1.7328,1.7333,1.7346,1.7349,1.7357,1.7369,1.7375,1.7389,1.7391,1.7406,1.7406,1.7403,1.7403,1.7411,1.741,1.7436,1.744,1.742,1.742,1.7421,0,1.7266,1.7277,1.7291,1.7299,1.7306,1.7318,1.7326,1.7332,1.734,1.7353,1.736,1.7372,1.7382,1.7401,1.7407,1.7418,1.7418,1.7427,1.742,1.7418,1.7417,1.7417,1.7417,1.7428,1.7428,1.7428,1.7428,0,1.7285,1.7288,1.73,1.7314,1.7323,1.7334,1.7344,1.735,1.7357,1.7366,1.7379,1.7386,1.7401,1.7413,1.7424,1.743,1.743,1.743,1.7433,1.7432,1.7429,1.743,1.7406,1.743,1.7429,1.7429,1.7429,1.7429,1.7297,1.7306,1.7318,1.7332,1.734,1.735,1.7359,1.7366,1.7377,1.739,1.7393,1.7406,1.7416,1.7431,1.7437,1.7447,1.7444,1.7448,1.7449,1.7449,1.745,1.7428,1.7449,1.7449,1.7449,1.7449,1.7449,0,1.7315,1.7323,1.7335,1.735,1.736,1.7361,1.7372,1.738,1.7392,1.7402,1.7412,1.7426,1.7437,1.7445,1.7456,1.7463,1.7463,1.7465,1.7465,1.7466,1.7451,1.7448,1.7465,1.7465,1.7465,1.7465,1.7465,1.7465,1.7326,1.7342,1.7347,1.7367,1.7374,1.7388,1.7394,1.7403,1.7411,1.7427,1.7437,1.7442,1.745,1.7462,1.7472,1.7474,1.7478,1.7481,1.7482,1.7468,1.7467,1.7465,1.7462,1.7482,1.7482,1.7496,1.7496,1.7496]}]]